This is the latest recevied weather packets stored in our database for station/object N4RCT. If no packets are shown the sender has not sent any weather packets the latest 10 day(s).
| Time | Temp. | Humidity | Pressure | Rain* | Wind** | Luminosity | Snow |
|---|---|---|---|---|---|---|---|
| 1777710723 | 12.78° C | 66% | 1011.8 hPa | 0 mm | - | 0 W/m² | - |
| 1777710420 | 12.78° C | 68% | 1011.4 hPa | 0 mm | - | 0 W/m² | - |
| 1777710116 | 13.33° C | 63% | 1011.4 hPa | 0 mm | - | 0 W/m² | - |
| 1777709814 | 13.33° C | 65% | 1011.6 hPa | 0 mm | - | 0 W/m² | - |
| 1777709511 | 13.33° C | 64% | 1011.7 hPa | 0 mm | - | 0 W/m² | - |
| 1777709209 | 13.33° C | 65% | 1011.6 hPa | 0 mm | - | 0 W/m² | - |
| 1777708906 | 13.33° C | 66% | 1011.8 hPa | 0 mm | - | 0 W/m² | - |
| 1777708604 | 13.33° C | 66% | 1011.7 hPa | 0 mm | - | 0 W/m² | - |
| 1777708301 | 13.33° C | 70% | 1011.7 hPa | 0 mm | - | 0 W/m² | - |
| 1777707999 | 13.33° C | 73% | 1011.9 hPa | 0 mm | - | 0 W/m² | - |
| 1777707696 | 13.33° C | 66% | 1012.1 hPa | 0 mm | - | 0 W/m² | - |
| 1777707392 | 13.33° C | 67% | 1012.1 hPa | 0 mm | - | 0 W/m² | - |
| 1777707088 | 13.89° C | 66% | 1011.8 hPa | 0 mm | - | 0 W/m² | - |
| 1777706786 | 13.89° C | 68% | 1012.1 hPa | 0 mm | - | 0 W/m² | - |
| 1777706484 | 13.89° C | 70% | 1012.1 hPa | 0 mm | - | 0 W/m² | - |
| 1777706181 | 13.89° C | 70% | 1012.1 hPa | 0 mm | - | 0 W/m² | - |
| 1777705879 | 13.89° C | 75% | 1012.1 hPa | 0 mm | - | 0 W/m² | - |
| 1777705577 | 13.89° C | 75% | 1012 hPa | 0 mm | - | 0 W/m² | - |
| 1777705275 | 13.89° C | 71% | 1012 hPa | 0 mm | - | 0 W/m² | - |
| 1777704973 | 13.89° C | 70% | 1012.3 hPa | 0 mm | - | 0 W/m² | - |
| 1777704670 | 13.89° C | 71% | 1012.4 hPa | 0 mm | - | 0 W/m² | - |
| 1777704369 | 13.89° C | 72% | 1012.3 hPa | 0 mm | - | 0 W/m² | - |
| 1777704066 | 13.89° C | 71% | 1012.5 hPa | 0 mm | - | 0 W/m² | - |
| 1777703764 | 14.44° C | 70% | 1012.4 hPa | 0 mm | - | 0 W/m² | - |
| 1777703461 | 13.89° C | 72% | 1012.4 hPa | 0 mm | - | 0 W/m² | - |
* Rain latest hour (hover to see other rain measurements)
** Current wind speed in m/s (hover to see current wind gust speed)